BTI995 EETN-EFTP

Flight info

Callsign BTI995
Flight time 0h 43m
Altitude 20000
Route MOHNI DCT NISVI
Aircraft DH8D/M-SDE2E3FGRY/H

Departure

Time 2026-05-04 20:38
Airport Lennart Meri Tallinn Airport (EETN)

Arrival

Time 2026-05-04 21:21
Airport Tampere-Pirkkala Airport (EFTP)
Time Latitude Longitude Altitude Speed Heading
2026-05-04 20:06 59.41597 24.80655 142 ft 0 kts
2026-05-04 20:33 59.41600 24.80655 141 ft 1 kts
2026-05-04 20:33 59.41612 24.80665 141 ft 2 kts 66°
2026-05-04 20:34 59.41602 24.80687 141 ft 2 kts 158°
2026-05-04 20:34 59.41568 24.80695 141 ft 7 kts 179°
2026-05-04 20:34 59.41523 24.80689 141 ft 6 kts 212°
2026-05-04 20:34 59.41508 24.80610 141 ft 6 kts 266°
2026-05-04 20:35 59.41499 24.80519 141 ft 7 kts 240°
2026-05-04 20:35 59.41470 24.80482 141 ft 5 kts 195°
2026-05-04 20:35 59.41435 24.80497 141 ft 0 kts 146°
2026-05-04 20:35 59.41415 24.80531 141 ft 6 kts 134°
2026-05-04 20:36 59.41370 24.80623 141 ft 11 kts 135°
2026-05-04 20:36 59.41341 24.80698 141 ft 6 kts 115°
2026-05-04 20:36 59.41334 24.80793 141 ft 0 kts 88°
2026-05-04 20:37 59.41335 24.80916 142 ft 33 kts 90°
2026-05-04 20:37 59.41333 24.81989 142 ft 118 kts 92°
2026-05-04 20:37 59.41317 24.83985 240 ft 159 kts 94°
2026-05-04 20:37 59.41266 24.86188 721 ft 168 kts 95°
2026-05-04 20:38 59.41202 24.88409 1431 ft 167 kts 97°
2026-05-04 20:38 59.41016 24.90783 1882 ft 182 kts 102°
2026-05-04 20:38 59.40911 24.93266 2412 ft 193 kts 86°
2026-05-04 20:38 59.41127 24.95965 2891 ft 202 kts 73°
2026-05-04 20:39 59.41507 24.98447 3839 ft 185 kts 81°
2026-05-04 20:39 59.41578 25.00951 4412 ft 190 kts 75°
2026-05-04 20:39 59.42220 25.03207 4717 ft 199 kts 35°
2026-05-04 20:39 59.43454 25.04343 5204 ft 196 kts
2026-05-04 20:40 59.44770 25.04943 5851 ft 199 kts
2026-05-04 20:40 59.46127 25.05572 6511 ft 198 kts 358°
2026-05-04 20:40 59.47349 25.04919 7040 ft 182 kts 314°
2026-05-04 20:40 59.48160 25.03054 7555 ft 182 kts 303°
2026-05-04 20:41 59.48951 25.01114 8118 ft 184 kts 304°
2026-05-04 20:41 59.49784 24.99180 8679 ft 186 kts 305°
2026-05-04 20:41 59.50629 24.97298 9248 ft 188 kts 305°
2026-05-04 20:41 59.51545 24.95295 9428 ft 210 kts 306°
2026-05-04 20:42 59.52569 24.93122 9864 ft 218 kts 307°
2026-05-04 20:42 59.53609 24.90974 10402 ft 220 kts 307°
2026-05-04 20:42 59.54673 24.88802 10978 ft 222 kts 307°
2026-05-04 20:42 59.55736 24.86646 11501 ft 224 kts 307°
2026-05-04 20:43 59.56901 24.84566 12065 ft 234 kts 320°
2026-05-04 20:43 59.58566 24.83872 12520 ft 263 kts 359°
2026-05-04 20:43 59.60265 24.85403 12951 ft 287 kts 37°
2026-05-04 20:43 59.61575 24.88505 13443 ft 295 kts 50°
2026-05-04 20:44 59.62786 24.91742 13932 ft 298 kts 50°
2026-05-04 20:44 59.64034 24.95000 14410 ft 300 kts 49°
2026-05-04 20:44 59.65316 24.98292 14887 ft 302 kts 48°
2026-05-04 20:44 59.66603 25.01545 15352 ft 305 kts 48°
2026-05-04 20:45 59.67923 25.04849 15794 ft 307 kts 47°
2026-05-04 20:45 59.69250 25.08147 16226 ft 309 kts 47°
2026-05-04 20:45 59.70584 25.11446 16648 ft 312 kts 47°
2026-05-04 20:45 59.71950 25.14815 17087 ft 313 kts 47°
2026-05-04 20:46 59.73318 25.18182 17486 ft 316 kts 47°
2026-05-04 20:46 59.74686 25.21545 17884 ft 317 kts 47°
2026-05-04 20:46 59.76073 25.24956 18246 ft 320 kts 46°
2026-05-04 20:46 59.77461 25.28368 18596 ft 321 kts 46°
2026-05-04 20:47 59.78868 25.31831 18985 ft 322 kts 46°
2026-05-04 20:47 59.80264 25.35265 19305 ft 324 kts 46°
2026-05-04 20:47 59.81681 25.38757 19597 ft 329 kts 46°
2026-05-04 20:47 59.83139 25.42346 19679 ft 339 kts 46°
2026-05-04 20:48 59.84652 25.46072 19710 ft 350 kts 47°
2026-05-04 20:48 59.86195 25.49874 19713 ft 359 kts 46°
2026-05-04 20:48 59.88013 25.53169 19692 ft 355 kts 23°
2026-05-04 20:48 59.90302 25.54587 19716 ft 339 kts 355°
2026-05-04 20:49 59.92518 25.53853 19719 ft 321 kts 329°
2026-05-04 20:49 59.94532 25.51900 19705 ft 321 kts 323°
2026-05-04 20:49 59.96483 25.49797 19710 ft 324 kts 322°
2026-05-04 20:49 59.98475 25.47570 19708 ft 328 kts 322°
2026-05-04 20:50 60.00458 25.45304 19702 ft 330 kts 321°
2026-05-04 20:50 60.02416 25.43035 19703 ft 331 kts 321°
2026-05-04 20:50 60.04412 25.40691 19697 ft 333 kts 321°
2026-05-04 20:50 60.06405 25.38333 19700 ft 334 kts 321°
2026-05-04 20:51 60.08414 25.35938 19687 ft 335 kts 321°
2026-05-04 20:51 60.10396 25.33565 19689 ft 335 kts 321°
2026-05-04 20:51 60.12391 25.31165 19676 ft 335 kts 321°
2026-05-04 20:51 60.14363 25.28784 19701 ft 334 kts 321°
2026-05-04 20:52 60.16351 25.26376 19697 ft 335 kts 320°
2026-05-04 20:52 60.18341 25.23958 19685 ft 335 kts 320°
2026-05-04 20:52 60.20337 25.21528 19678 ft 334 kts 320°
2026-05-04 20:52 60.22272 25.19173 19669 ft 328 kts 320°
2026-05-04 20:53 60.24211 25.16807 19658 ft 323 kts 320°
2026-05-04 20:53 60.26104 25.14490 19699 ft 318 kts 320°
2026-05-04 20:53 60.27993 25.12174 19671 ft 316 kts 320°
2026-05-04 20:53 60.29870 25.09870 19676 ft 314 kts 320°
2026-05-04 20:54 60.31720 25.07594 19680 ft 312 kts 320°
2026-05-04 20:54 60.33509 25.05388 19684 ft 311 kts 320°
2026-05-04 20:54 60.35361 25.03102 19682 ft 310 kts 320°
2026-05-04 20:54 60.37196 25.00834 19680 ft 308 kts 320°
2026-05-04 20:55 60.38994 24.98610 19681 ft 307 kts 320°
2026-05-04 20:55 60.40823 24.96344 19682 ft 305 kts 319°
2026-05-04 20:55 60.42626 24.94106 19684 ft 305 kts 319°
2026-05-04 20:55 60.44410 24.91889 19683 ft 305 kts 319°
2026-05-04 20:56 60.46224 24.89630 19678 ft 304 kts 319°
2026-05-04 20:56 60.48019 24.87393 19657 ft 304 kts 319°
2026-05-04 20:56 60.49799 24.85171 19695 ft 304 kts 319°
2026-05-04 20:56 60.51607 24.82912 19693 ft 305 kts 319°
2026-05-04 20:57 60.53413 24.80652 19678 ft 306 kts 319°
2026-05-04 20:57 60.55216 24.78393 19671 ft 306 kts 319°
2026-05-04 20:57 60.57021 24.76131 19682 ft 305 kts 319°
2026-05-04 20:57 60.58825 24.73865 19669 ft 305 kts 319°
2026-05-04 20:58 60.60627 24.71600 19670 ft 305 kts 319°
2026-05-04 20:58 60.62420 24.69343 19673 ft 307 kts 319°
2026-05-04 20:58 60.64246 24.67039 19666 ft 308 kts 319°
2026-05-04 20:58 60.66053 24.64757 19665 ft 309 kts 319°
2026-05-04 20:59 60.67886 24.62440 19667 ft 310 kts 319°
2026-05-04 20:59 60.69711 24.60131 19658 ft 310 kts 319°
2026-05-04 20:59 60.71528 24.57830 19662 ft 310 kts 319°
2026-05-04 20:59 60.73354 24.55513 19665 ft 310 kts 319°
2026-05-04 21:00 60.75188 24.53184 19662 ft 310 kts 319°
2026-05-04 21:00 60.77034 24.50836 19656 ft 310 kts 319°
2026-05-04 21:00 60.78847 24.48525 19660 ft 311 kts 319°
2026-05-04 21:00 60.80698 24.46161 19661 ft 314 kts 319°
2026-05-04 21:01 60.82550 24.43791 19659 ft 316 kts 319°
2026-05-04 21:01 60.84410 24.41409 19659 ft 318 kts 319°
2026-05-04 21:01 60.86274 24.39022 19652 ft 319 kts 319°
2026-05-04 21:01 60.87969 24.36849 19655 ft 320 kts 319°
2026-05-04 21:02 60.89235 24.35223 19650 ft 321 kts 319°
2026-05-04 21:02 60.91738 24.32005 19642 ft 321 kts 318°
2026-05-04 21:02 60.93639 24.29557 19643 ft 322 kts 318°
2026-05-04 21:02 60.95533 24.27115 19658 ft 322 kts 318°
2026-05-04 21:03 60.97420 24.24677 19643 ft 322 kts 318°
2026-05-04 21:03 60.99337 24.22199 19649 ft 322 kts 318°
2026-05-04 21:03 61.01210 24.19772 19655 ft 322 kts 318°
2026-05-04 21:03 61.03109 24.17310 19645 ft 321 kts 318°
2026-05-04 21:04 61.05026 24.14929 19640 ft 325 kts 323°
2026-05-04 21:04 61.07224 24.13575 19675 ft 339 kts 339°
2026-05-04 21:04 61.09578 24.12732 19645 ft 340 kts 340°
2026-05-04 21:04 61.11883 24.11933 19634 ft 339 kts 340°
2026-05-04 21:05 61.14199 24.11135 19643 ft 338 kts 340°
2026-05-04 21:05 61.16524 24.10331 19643 ft 337 kts 340°
2026-05-04 21:05 61.18823 24.09534 19634 ft 337 kts 340°
2026-05-04 21:05 61.21131 24.08729 19643 ft 337 kts 340°
2026-05-04 21:06 61.23447 24.07920 19642 ft 337 kts 340°
2026-05-04 21:06 61.25761 24.07110 19637 ft 337 kts 340°
2026-05-04 21:06 61.28068 24.06302 19637 ft 335 kts 340°
2026-05-04 21:06 61.30343 24.05503 19628 ft 334 kts 340°
2026-05-04 21:07 61.32600 24.04708 19627 ft 333 kts 340°
2026-05-04 21:07 61.34916 24.03885 19356 ft 338 kts 340°
2026-05-04 21:07 61.37207 24.03068 18923 ft 337 kts 341°
2026-05-04 21:07 61.39494 24.02257 18464 ft 334 kts 341°
2026-05-04 21:08 61.41746 24.01253 18090 ft 318 kts 332°
2026-05-04 21:08 61.43686 23.99545 17769 ft 302 kts 325°
2026-05-04 21:08 61.45564 23.97688 17421 ft 292 kts 324°
2026-05-04 21:08 61.47378 23.95884 17033 ft 285 kts 324°
2026-05-04 21:09 61.49096 23.94091 16506 ft 279 kts 321°
2026-05-04 21:09 61.50726 23.91906 15709 ft 282 kts 321°
2026-05-04 21:09 61.52630 23.90580 14890 ft 304 kts 344°
2026-05-04 21:09 61.54774 23.90923 14020 ft 324 kts
2026-05-04 21:10 61.56838 23.92991 13091 ft 341 kts 31°
2026-05-04 21:10 61.58442 23.96558 12484 ft 340 kts 54°
2026-05-04 21:10 61.59565 24.00780 12164 ft 325 kts 60°
2026-05-04 21:10 61.60577 24.04916 11708 ft 316 kts 61°
2026-05-04 21:11 61.61554 24.08958 11240 ft 309 kts 60°
2026-05-04 21:11 61.62506 24.12949 10768 ft 301 kts 61°
2026-05-04 21:11 61.63421 24.16812 10299 ft 294 kts 61°
2026-05-04 21:11 61.64242 24.20719 9813 ft 290 kts 71°
2026-05-04 21:12 61.64378 24.24884 9327 ft 287 kts 98°
2026-05-04 21:12 61.63685 24.28690 8857 ft 277 kts 126°
2026-05-04 21:12 61.62342 24.31387 8384 ft 264 kts 154°
2026-05-04 21:12 61.60671 24.32471 7913 ft 246 kts 183°
2026-05-04 21:13 61.59076 24.31809 7442 ft 228 kts 212°
2026-05-04 21:13 61.57946 24.29710 6981 ft 216 kts 238°
2026-05-04 21:13 61.57145 24.27046 6540 ft 221 kts 243°
2026-05-04 21:13 61.56390 24.24278 6397 ft 206 kts 245°
2026-05-04 21:14 61.55753 24.21856 6726 ft 186 kts 246°
2026-05-04 21:14 61.55140 24.19446 6589 ft 190 kts 246°
2026-05-04 21:14 61.54517 24.16919 6293 ft 201 kts 247°
2026-05-04 21:14 61.53869 24.14237 5930 ft 212 kts 247°
2026-05-04 21:15 61.53199 24.11432 5572 ft 219 kts 247°
2026-05-04 21:15 61.52525 24.08589 5219 ft 222 kts 247°
2026-05-04 21:15 61.51841 24.05692 4855 ft 220 kts 247°
2026-05-04 21:15 61.51171 24.02846 4494 ft 218 kts 247°
2026-05-04 21:16 61.50512 24.00035 4169 ft 214 kts 247°
2026-05-04 21:16 61.49868 23.97283 3860 ft 211 kts 248°
2026-05-04 21:16 61.49224 23.94525 3543 ft 208 kts 248°
2026-05-04 21:16 61.48598 23.91837 3231 ft 205 kts 248°
2026-05-04 21:17 61.47974 23.89165 2916 ft 203 kts 247°
2026-05-04 21:17 61.47369 23.86563 2602 ft 198 kts 246°
2026-05-04 21:17 61.46772 23.83979 2282 ft 194 kts 246°
2026-05-04 21:17 61.46205 23.81488 1969 ft 185 kts 246°
2026-05-04 21:18 61.45684 23.79196 1686 ft 166 kts 246°
2026-05-04 21:18 61.45222 23.77158 1626 ft 143 kts 246°
2026-05-04 21:18 61.44824 23.75354 1599 ft 133 kts 246°
2026-05-04 21:18 61.44462 23.73658 1531 ft 121 kts 249°
2026-05-04 21:19 61.44102 23.72113 1425 ft 116 kts 244°
2026-05-04 21:19 61.43757 23.70640 1260 ft 113 kts 245°
2026-05-04 21:19 61.43421 23.69146 1050 ft 114 kts 246°
2026-05-04 21:19 61.43091 23.67670 943 ft 112 kts 246°
2026-05-04 21:20 61.42752 23.66211 805 ft 112 kts 245°
2026-05-04 21:20 61.42415 23.64740 647 ft 112 kts 244°
2026-05-04 21:20 61.42075 23.63273 482 ft 111 kts 243°
2026-05-04 21:20 61.41753 23.61866 377 ft 97 kts 244°
2026-05-04 21:21 61.41537 23.60952 387 ft 49 kts 243°
2026-05-04 21:21 61.41440 23.60545 387 ft 19 kts 244°
2026-05-04 21:21 61.41383 23.60304 388 ft 17 kts 243°